Location: Nairn
(57.5833°N, 3.8667°W)
Time: 03:37:40
(UTC+00:00)

Cosmos 773 Rocket - Pass Details

Date: 07 August 2020
Orbit: 746 x 776 km, 74.1° (Epoch: 27 September)

Event Time Altitude Azimuth Distance (km) Brightness Sun altitude
Rises 01:36:00 0° 328° (NNW) 3,216 7.8 -14.5°
Reaches altitude 10° 01:38:28 10° 322° (NW) 2,283 6.9 -14.4°
Maximum altitude 01:43:20 44° 252° (WSW) 1,038 4.4 -14.2°
Enters shadow 01:46:23 21° 191° (S) 1,641 5.1 -14.0°
